Toledo Express Airport
KTOL : now visible

Airfield :











YOU CAN JOIN US ON...

 
LOGIN :

Register | Disclaimer

   EN    FR    IT 

 









Legend :    VFR   Marginal VFR   IFR   Intensive IFR   Very Intensive IFR
Visi :
Ceiling :
>= 8 km
>= 3000ft
5 to 8 km
1000 to 3000 ft
1500m to 5 km
500 to 1000 ft
800 to 1500m
200 to 500 ft
< 800m
< 200 ft
Symbols :   Thunderstorms  Fog  Heavy snow  Heavy precipitations  Wind > 20 kt






- Airport Elevation : 683 ft
- IATA code : TOL


KTOL - Toledo Express

CURRENT METAR :
  • 231352Z 21008KT 10SM CLR 02/M07 A3007 RMK AO2 SLP189 T00221072

EXPIRED METARs :
  • 231252Z 21006KT 10SM CLR 00/M08 A3007 RMK AO2 SLP187 T00001078 $
  • 231152Z AUTO 20005KT 10SM CLR M01/M08 A3007 RMK AO2 SLP190 T10061078 10022 21006 56012 $

TAF KTOL
Valid from the 23 at 12:00 until the 24 at 12:00 UTC


231120Z 2312/2412 21008KT P6SM SKC
FM231700 22012G19KT P6SM SCT200
FM232200 23009KT P6SM BKN250
FM240600 24005KT P6SM BKN050
FM240900 24005KT 6SM BR OVC025



MET'MAP, your aeronautical weather chart ! - Copyright ORBIFLY December 2007 - Disclaimer

ORBIFLY MET'MAP TEAM :

Programming & Development : Alexandra Zaïnal
Concept & original design : Baudouin d'Aumeries
Assistance for programming : Marc-Olivier Méhu
Technical & hardware support : Manuel Goepfert

Contact : metmap@orbifly.com




SOURCES & CREDITS :

   NOAA       Earth
Advisory